Location: North Smoke Tower Site
(30.5430°N, 82.3390°W)
Time: 18:35:26
(UTC-04:00)

Cosmos 1980 Rocket - Visible Passes

Search period start: 27 April 2017 00:00
Search period end: 07 May 2017 00:00
Orbit: 828 x 852 km, 71.0° (Epoch: 26 April)

Date Brightness Start Highest point End Pass type
(mag) Time Alt. Az. Time Alt. Az. Time Alt. Az.
27 Apr 5.3 04:59:27 10° NNE 05:02:45 16° ENE 05:06:02 10° E visible
27 Apr 5.6 21:30:41 10° WNW 21:32:33 12° WNW 21:34:25 10° NW visible
28 Apr 5.3 04:44:01 10° NNE 04:47:02 14° ENE 04:50:02 10° E visible
28 Apr 5.6 21:14:29 10° W 21:16:50 12° WNW 21:19:11 10° NNW visible
29 Apr 5.3 04:28:37 10° NNE 04:31:19 13° ENE 04:33:59 10° E visible
29 Apr 2.2 06:10:09 10° NNW 06:15:48 69° WSW 06:21:23 10° S visible
29 Apr 5.5 20:58:24 10° W 21:01:07 13° WNW 21:03:50 10° NNW visible
30 Apr 5.3 04:13:18 10° NNE 04:15:35 12° ENE 04:17:52 10° E visible
30 Apr 2.1 05:54:28 10° NNW 06:00:08 74° WSW 06:05:44 10° SSE visible
30 Apr 5.4 20:42:22 10° W 20:45:23 15° WNW 20:48:27 10° NNW visible
01 May 5.3 03:58:04 10° NE 03:59:52 11° NE 04:01:40 10° ENE visible
01 May 2.1 05:38:47 10° NNW 05:44:28 80° WSW 05:50:05 10° SSE visible
01 May 5.3 20:26:22 10° W 20:29:40 16° WNW 20:33:00 10° NNW visible
02 May 5.3 03:43:03 10° NE 03:44:09 10° NE 03:45:13 10° ENE visible
02 May 2.1 05:23:06 10° NNW 05:28:48 86° WSW 05:34:26 10° SSE visible
03 May 2.2 05:07:27 10° NNW 05:13:08 88° ENE 05:18:46 10° SSE visible
04 May 2.2 04:51:46 10° NNW 04:57:28 83° ENE 05:03:06 10° SSE visible
05 May 2.3 04:36:07 10° NNW 04:41:48 77° ENE 04:47:25 10° SSE visible
06 May 2.3 04:20:28 10° NNW 04:26:08 71° ENE 04:31:06 13° SSE visible
06 May 3.9 06:08:15 10° W 06:09:22 11° W 06:10:30 10° WSW visible
